Roanoke, VA

4:08 PM EDT on March 27, 2017 (GMT -0400)
Roanoke Regional-Woodrum

Weather History for KROA - May, 2012

Change the Weather History Date:

Tuesday, May 15, 2012

  Actual Average Record
Temperature  
Mean Temperature 69 °F 64 °F  
Max Temperature 78 °F 75 °F 92 °F (1962)
Min Temperature 60 °F 53 °F 34 °F (1920)
Degree Days  
Heating Degree Days 0 3  
Month to date heating degree days 28 66  
Since 1 July heating degree days 3182 4098  
Cooling Degree Days 4 3  
Month to date cooling degree days 53 28  
Year to date cooling degree days 99 57  
Growing Degree Days 19 (Base 50)    
Moisture  
Dew Point 61 °F    
Average Humidity 79    
Maximum Humidity 100    
Minimum Humidity 58    
Precipitation  
Precipitation 0.00 in 0.13 in 2.10 in (2003)
Month to date precipitation 2.68 1.82  
Year to date precipitation 13.14 14.46  
Snow  
Snow 0.00 in - - ()
Month to date snowfall 0.0  
Since 1 July snowfall 6.1  
Snow Depth 0.00 in    
Sea Level Pressure  
Sea Level Pressure 29.99 in    
Wind  
Wind Speed 2 mph (NNE)    
Max Wind Speed 13 mph    
Max Gust Speed 16 mph    
Visibility 8 miles    
Events Fog , Thunderstorm    
T = Trace of Precipitation, MM = Missing Value Source: NWS Daily Summary

Daily Weather History Graph

Daily Weather History Graph

Search for Another Location

Airport or City:

Trip Planner

Search our weather history database for the weather conditions in past years. The results will help you decide how hot, cold, wet, or windy it might be!

Date:

Astronomy

May. 15, 2012 Rise Set
Actual Time 6:10 AM EDT 8:22 PM EDT
Civil Twilight 5:41 AM EDT 8:51 PM EDT
Nautical Twilight 5:05 AM EDT 9:27 PM EDT
Astronomical Twilight 4:26 AM EDT 10:06 PM EDT
Moon 3:06 AM EDT (5/15) 3:44 PM EDT (5/15)
Length of Visible Light 15h 10m
Length of Day
14h 11m
Waning Crescent, 24% of the Moon is Illuminated
May 15
Waning Crescent
May 20
New
May 28
First Quarter
Jun 4
Full
Jun 11
Last Quarter

Hourly Weather History & Observations

Time (EDT) Temp. Dew Point Humidity Pressure Visibility Wind Dir Wind Speed Gust Speed Precip Events Conditions
12:54 AM 63.0 °F 62.1 °F 97% 30.00 in 7.0 mi West 3.5 mph - 0.00 in   Overcast
1:54 AM 64.0 °F 62.1 °F 93% 29.98 in 10.0 mi Calm Calm - N/A   Overcast
2:54 AM 63.0 °F 62.1 °F 97% 29.96 in 7.0 mi North 3.5 mph - N/A   Overcast
3:54 AM 63.0 °F 62.1 °F 97% 29.97 in 7.0 mi WSW 3.5 mph - N/A   Overcast
4:54 AM 62.1 °F 60.1 °F 93% 29.96 in 10.0 mi NNW 6.9 mph - N/A   Mostly Cloudy
5:54 AM 61.0 °F 60.1 °F 97% 29.97 in 10.0 mi Calm Calm - N/A   Partly Cloudy
6:19 AM 60.8 °F 60.8 °F 100% 30.00 in 7.0 mi Calm Calm - N/A   Scattered Clouds
6:35 AM 62.6 °F 60.8 °F 94% 30.00 in 3.0 mi Calm Calm - N/A   Mostly Cloudy
6:54 AM 62.1 °F 61.0 °F 96% 29.99 in 4.0 mi Calm Calm - N/A   Mostly Cloudy
7:02 AM 62.6 °F 60.8 °F 94% 30.01 in 2.0 mi Calm Calm - N/A   Mostly Cloudy
7:04 AM 62.6 °F 60.8 °F 94% 30.01 in 6.0 mi Calm Calm - N/A   Mostly Cloudy
7:10 AM 62.6 °F 60.8 °F 94% 30.01 in 2.0 mi Calm Calm - N/A   Mostly Cloudy
7:50 AM 62.6 °F 60.8 °F 94% 30.01 in 0.2 mi Calm Calm - N/A Fog Fog
7:54 AM 62.1 °F 61.0 °F 96% 29.99 in 0.2 mi Calm Calm - N/A Fog Fog
8:30 AM 64.4 °F 62.6 °F 94% 30.01 in 2.0 mi Calm Calm - N/A   Mostly Cloudy
8:54 AM 66.0 °F 63.0 °F 90% 29.99 in 10.0 mi NE 3.5 mph - N/A   Mostly Cloudy
9:12 AM 66.2 °F 62.6 °F 88% 30.02 in 10.0 mi Calm Calm - N/A   Scattered Clouds
9:37 AM 66.2 °F 62.6 °F 88% 30.02 in 10.0 mi ESE 4.6 mph - N/A   Mostly Cloudy
9:54 AM 66.9 °F 63.0 °F 87% 30.00 in 10.0 mi SSE 3.5 mph - N/A   Mostly Cloudy
10:15 AM 68.0 °F 60.8 °F 78% 30.03 in 10.0 mi SSE 3.5 mph - N/A   Overcast
10:29 AM 68.0 °F 62.6 °F 83% 30.03 in 10.0 mi South 4.6 mph - N/A   Overcast
10:54 AM 66.9 °F 62.1 °F 84% 30.01 in 10.0 mi SE 5.8 mph - N/A   Overcast
11:54 AM 70.0 °F 60.1 °F 71% 30.01 in 10.0 mi Calm Calm - N/A   Overcast
12:19 PM 69.8 °F 59.0 °F 68% 30.03 in 10.0 mi SE 3.5 mph - N/A   Overcast
12:28 PM 69.8 °F 60.8 °F 73% 30.03 in 10.0 mi Calm Calm - N/A   Overcast
12:54 PM 71.1 °F 61.0 °F 70% 30.00 in 10.0 mi Variable 5.8 mph - N/A   Overcast
1:54 PM 72.0 °F 61.0 °F 68% 29.99 in 10.0 mi South 3.5 mph - N/A   Overcast
2:54 PM 73.4 °F 60.8 °F 65% 30.00 in 10.0 mi NW 3.5 mph - N/A   Scattered Clouds
3:54 PM 75.0 °F 60.1 °F 60% 29.95 in 10.0 mi Calm Calm - N/A   Scattered Clouds
4:54 PM 75.9 °F 60.1 °F 58% 29.94 in 10.0 mi Calm Calm - N/A   Mostly Cloudy
5:54 PM 75.0 °F 59.0 °F 57% 29.95 in 10.0 mi Calm Calm - N/A   Scattered Clouds
6:00 PM 75.2 °F 60.8 °F 61% 29.97 in 10.0 mi NNW 3.5 mph - N/A Thunderstorm Thunderstorm
6:54 PM 70.0 °F 61.0 °F 73% 29.96 in 10.0 mi NNW 5.8 mph - N/A Thunderstorm Thunderstorm
7:27 PM 69.8 °F 60.8 °F 73% 29.99 in 10.0 mi NNE 5.8 mph - N/A   Overcast
7:54 PM 68.0 °F 60.1 °F 76% 29.96 in 10.0 mi ENE 4.6 mph - N/A   Scattered Clouds
8:54 PM 66.9 °F 60.1 °F 79% 29.97 in 10.0 mi North 4.6 mph - N/A   Partly Cloudy
9:54 PM 66.0 °F 61.0 °F 84% 29.99 in 10.0 mi Calm Calm - N/A   Partly Cloudy
10:54 PM 64.0 °F 61.0 °F 90% 30.00 in 10.0 mi Calm Calm - N/A   Clear
11:54 PM 62.1 °F 59.0 °F 90% 29.99 in 10.0 mi North 3.5 mph - N/A   Partly Cloudy